NEODyS-2

Near Earth Objects - Dynamic Site
NEODyS ∴ Observatories ∴ Site 691 ∴ Obs & residuals
Contact »
691  ▹ 
OBSERVATIONS AND RESIDUALS

691-Steward Observatory, Kitt Peak-Spacewatch

Detections | Residuals | Detections & Residuals

[1-200] [201-400] [401-600] [601-800] [801-1000] [1001-1200] [1201-1400] [1401-1600] [1601-1800] [1801-2000] [2001-2200] [2201-2400] [2401-2600] [2601-2800] [2801-3000] [3001-3200] [3201-3400] [3401-3600] [3601-3800] [3801-4000] [4001-4200] [4201-4400] [4401-4600] [4601-4800] [4801-5000] [5001-5200] [5201-5400] [5401-5600] [5601-5800] [5801-6000] [6001-6200] [6201-6400] [6401-6600] [6601-6800] [6801-7000] [7001-7200] [7201-7400] [7401-7600] [7601-7800] [7801-8000] [8001-8200] [8201-8400] [8401-8600] [8601-8800] [8801-9000] [9001-9200] [9201-9400] [9401-9600] [9601-9800] [9801-10000] [10001-10200] [10201-10400] [10401-10600] [10601-10800] [10801-11000] [11001-11200] [11201-11400] [11401-11600] [11601-11800] [11801-12000] [12001-12200] [12201-12400] [12401-12600] [12601-12800] [12801-13000] [13001-13200] [13201-13400] [13401-13600] [13601-13800] [13801-14000] [14001-14200] [14201-14400] [14401-14600] [14601-14800] [14801-15000] [15001-15200] [15201-15400] [15401-15600] [15601-15800] [15801-16000] [16001-16200] [16201-16400] [16401-16600] [16601-16800] [16801-17000] [17001-17200] [17201-17400] [17401-17600] [17601-17800] [17801-18000] [18001-18200] [18201-18400] [18401-18600] [18601-18800] [18801-19000] [19001-19200] [19201-19400] [19401-19600] [19601-19800] [19801-20000] [20001-20200] [20201-20400] [20401-20600] [20601-20800] [20801-21000] [21001-21200] [21201-21400] [21401-21600] [21601-21800] [21801-22000] [22001-22200] [22201-22400] [22401-22600] [22601-22800] [22801-23000] [23001-23200] [23201-23400] [23401-23600] [23601-23800] [23801-24000] [24001-24200] [24201-24400] [24401-24600] [24601-24800] [24801-25000] [25001-25200] [25201-25400] [25401-25600] [25601-25800] [25801-26000] [26001-26200] [26201-26400] [26401-26600] [26601-26800] [26801-27000] [27001-27200] [27201-27400] [27401-27600] [27601-27800] [27801-28000] [28001-28200] [28201-28400] [28401-28600] [28601-28800] [28801-29000] [29001-29200] [29201-29400] [29401-29600] [29601-29800] [29801-30000] [30001-30200] [30201-30400] [30401-30600] [30601-30800] [30801-31000] [31001-31200] [31201-31400] [31401-31600] [31601-31800] [31801-32000] [32001-32200] [32201-32400] [32401-32600] [32601-32800] [32801-33000] [33001-33200] [33201-33400] [33401-33600] [33601-33800] [33801-34000] [34001-34200] [34201-34400] [34401-34600] [34601-34800] [34801-35000] [35001-35200] [35201-35400] [35401-35600] [35601-35800] [35801-36000] [36001-36200] [36201-36400] [36401-36600] [36601-36800] [36801-37000] [37001-37200] [37201-37400] [37401-37600] [37601-37800] [37801-38000] [38001-38200] [38201-38400] [38401-38600] [38601-38800] [38801-39000] [39001-39200] [39201-39400] [39401-39600] [39601-39800] [39801-40000] [40001-40200] [40201-40400] [40401-40600] [40601-40800] [40801-41000] [41001-41200] [41201-41400] [41401-41600] [41601-41800] [41801-42000] [42001-42200] [42201-42400] [42401-42600] [42601-42800] [42801-43000] [43001-43200] [43201-43400] [43401-43600] [43601-43800] [43801-44000] [44001-44200] [44201-44400] [44401-44600] [44601-44800] [44801-45000] [45001-45200] [45201-45400] [45401-45600] [45601-45800] [45801-46000] [46001-46200] [46201-46400] [46401-46600] [46601-46800] [46801-47000] [47001-47200] [47201-47400] [47401-47600] [47601-47800] [47801-48000] [48001-48200] [48201-48400] [48401-48600] [48601-48800] [48801-49000] [49001-49200] [49201-49400] [49401-49600] [49601-49800] [49801-50000] [50001-50200] [50201-50388]

Designation T Tech N Date Right Ascension Declination Apparent Magnitude Star Catalog Site code χ Used A Used M
yr-mo-day precision hr:min:sec precision rms F bias residual deg min sec precision rms F bias residual mag/col rms residual
1997EH29 O c 1997-03-08.23474 1.000E-05 12:08:16.640 1.500E-01 0.600 F -0.242 0.113 -01° 18' 13.90" 1.000E-01 0.600 F -0.902 0.103 21.0 V 0.70 0.57 i 691 0.26 Yes Yes
1997EH29 O c 1997-03-08.24173 1.000E-05 12:08:15.660 1.500E-01 0.600 F -0.242 -0.009 -01° 18' 03.90" 1.000E-01 0.600 F -0.902 0.671 20.8 V 0.70 0.37 i 691 1.12 Yes Yes
1997EN23 O c 1997-03-08.31428 1.000E-05 10:03:37.310 1.500E-01 0.600 F -0.468 -0.510 +01° 32' 59.80" 1.000E-01 0.600 F -0.739 -0.002 20.4 V 0.70 -0.13 i 691 0.97 Yes Yes
1997EN23 O c 1997-03-08.33522 1.000E-05 10:03:41.630 1.500E-01 0.600 F -0.468 -0.531 +01° 33' 24.40" 1.000E-01 0.600 F -0.739 -0.445 20.7 V 0.70 0.17 i 691 1.30 Yes Yes
1997EN23 O c 1997-03-08.35628 1.000E-05 10:03:46.050 1.500E-01 0.600 F -0.468 0.271 +01° 33' 50.40" 1.000E-01 0.600 F -0.739 0.377 20.5 V 0.70 -0.03 i 691 0.87 Yes Yes
1997EN23 O c 1997-03-09.20736 1.000E-05 10:06:58.550 1.500E-01 0.600 F -0.571 -0.420 +01° 50' 57.40" 1.000E-01 0.600 F -0.717 -0.504 20.9 V 0.70 0.38 i 691 1.15 Yes Yes
1997EN23 O c 1997-03-09.21278 1.000E-05 10:06:59.760 1.500E-01 0.600 F -0.571 0.560 +01° 51' 04.60" 1.000E-01 0.600 F -0.717 0.090 20.2 V 0.70 -0.32 i 691 1.00 Yes Yes
1997EN23 O c 1997-03-09.21772 1.000E-05 10:07:00.820 1.500E-01 0.600 F -0.571 0.822 +01° 51' 11.10" 1.000E-01 0.600 F -0.717 0.570 20.3 V 0.70 -0.22 i 691 1.76 Yes Yes
1997EH29 O c 1997-03-09.42788 1.000E-05 12:05:32.980 1.500E-01 0.600 F -0.186 -0.288 -00° 51' 20.10" 1.000E-01 0.600 F -0.361 0.036 20.6 V 0.70 0.20 i 691 0.49 Yes Yes
1997EH29 O c 1997-03-09.43229 1.000E-05 12:05:32.400 1.500E-01 0.600 F -0.186 0.279 -00° 51' 14.50" 1.000E-01 0.600 F -0.361 -0.336 20.7 V 0.70 0.30 i 691 0.73 Yes Yes
1997EH29 O c 1997-03-09.43772 1.000E-05 12:05:31.660 1.500E-01 0.600 F -0.186 0.586 -00° 51' 08.70" 1.000E-01 0.600 F -0.361 -1.888 19.1 V 0.70 -1.30 i 691 3.28 No Yes
1997EN23 O c 1997-03-10.34554 1.000E-05 10:11:17.130 1.500E-01 0.600 F 0.025 0.395 +02° 14' 13.50" 1.000E-01 0.600 F -0.597 0.294 20.5 V 0.70 0.00 i 691 0.88 Yes Yes
1997EN23 O c 1997-03-10.35002 1.000E-05 10:11:18.080 1.500E-01 0.600 F 0.025 -0.007 +02° 14' 19.00" 1.000E-01 0.600 F -0.597 0.282 20.5 V 0.70 0.00 i 691 0.50 Yes Yes
1997EN23 O c 1997-03-10.35390 1.000E-05 10:11:18.930 1.500E-01 0.600 F 0.025 0.039 +02° 14' 23.40" 1.000E-01 0.600 F -0.597 -0.092 20.5 V 0.70 0.00 i 691 0.18 Yes Yes
1997EN23 O c 1997-03-11.22096 1.000E-05 10:14:44.050 1.500E-01 0.600 F 0.614 -0.470 +02° 32' 19.90" 1.000E-01 0.600 F 0.239 -0.425 20.6 V 0.70 0.11 i 691 1.21 Yes Yes
1997EN23 O c 1997-03-11.24264 1.000E-05 10:14:48.860 1.500E-01 0.600 F 0.614 -0.155 +02° 32' 47.20" 1.000E-01 0.600 F 0.239 -0.195 20.6 V 0.70 0.11 i 691 0.48 Yes Yes
Eric O c 1997-03-11.42236 1.000E-05 12:21:05.430 1.500E-01 0.600 F 0.423 0.823 -02° 35' 31.20" 1.000E-01 0.600 F -0.776 0.349 15.5 V 0.70 0.22 i 691 1.49 Yes Yes
Eric O c 1997-03-11.47076 1.000E-05 12:21:00.750 1.500E-01 0.600 F 0.423 0.111 -02° 35' 27.60" 1.000E-01 0.600 F -0.776 0.522 15.1 V 0.70 -0.18 i 691 0.89 Yes Yes
Eric O c 1997-03-11.49197 1.000E-05 12:20:58.710 1.500E-01 0.600 F 0.423 -0.142 -02° 35' 26.20" 1.000E-01 0.600 F -0.776 0.411 15.0 V 0.70 -0.28 i 691 0.73 Yes Yes
1997ET30 O c 1997-03-12.26579 1.000E-05 10:38:34.910 1.500E-01 0.600 F 0.173 0.032 +17° 04' 37.40" 1.000E-01 0.600 F -0.229 -0.515 19.7 V 0.70 -0.21 i 691 0.86 Yes Yes
1997ET30 O c 1997-03-12.30217 1.000E-05 10:38:31.850 1.500E-01 0.600 F 0.173 -0.548 +17° 04' 47.40" 1.000E-01 0.600 F -0.229 -0.973 19.7 V 0.70 -0.21 i 691 1.86 Yes Yes
1997ET30 O c 1997-03-12.35109 1.000E-05 10:38:27.790 1.500E-01 0.600 F 0.173 -0.628 +17° 05' 01.50" 1.000E-01 0.600 F -0.229 -0.777 19.8 V 0.70 -0.11 i 691 1.67 Yes Yes
1997ET30 O c 1997-03-13.32686 1.000E-05 10:37:09.570 1.500E-01 0.600 F 0.173 0.016 +17° 09' 36.40" 1.000E-01 0.600 F -0.229 -0.375 19.7 V 0.70 -0.22 i 691 0.63 Yes Yes
1997ET30 O c 1997-03-13.33092 1.000E-05 10:37:09.260 1.500E-01 0.600 F 0.173 0.365 +17° 09' 37.10" 1.000E-01 0.600 F -0.229 -0.780 19.6 V 0.70 -0.32 i 691 1.44 Yes Yes
1997ET30 O c 1997-03-13.33646 1.000E-05 10:37:08.780 1.500E-01 0.600 F 0.173 0.023 +17° 09' 39.30" 1.000E-01 0.600 F -0.229 -0.086 19.9 V 0.70 -0.02 i 691 0.15 Yes Yes
1997ET30 O c 1997-03-14.29486 1.000E-05 10:35:52.450 1.500E-01 0.600 F 0.157 -0.184 +17° 13' 57.60" 1.000E-01 0.600 F -0.196 -0.389 20.2 V 0.70 0.26 i 691 0.72 Yes Yes
1997ET30 O c 1997-03-14.29929 1.000E-05 10:35:52.100 1.500E-01 0.600 F 0.157 -0.001 +17° 13' 58.80" 1.000E-01 0.600 F -0.196 -0.351 20.6 V 0.70 0.66 i 691 0.59 Yes Yes
1997ET30 O c 1997-03-14.30352 1.000E-05 10:35:51.760 1.500E-01 0.600 F 0.157 0.090 +17° 13' 59.90" 1.000E-01 0.600 F -0.196 -0.359 20.3 V 0.70 0.36 i 691 0.62 Yes Yes
1997EH29 O c 1997-03-14.33664 1.000E-05 11:54:21.320 1.500E-01 0.600 F -0.207 1.089 +00° 59' 04.70" 1.000E-01 0.600 F -0.169 0.421 20.6 V 0.70 0.40 i 691 1.97 Yes Yes
1997EH29 O c 1997-03-14.34800 1.000E-05 11:54:19.660 1.500E-01 0.600 F -0.207 0.011 +00° 59' 19.70" 1.000E-01 0.600 F -0.169 0.231 20.6 V 0.70 0.40 i 691 0.39 Yes Yes
1997EH29 O c 1997-03-14.35321 1.000E-05 11:54:18.910 1.500E-01 0.600 F -0.207 -0.316 +00° 59' 26.20" 1.000E-01 0.600 F -0.169 -0.235 20.7 V 0.70 0.50 i 691 0.66 Yes Yes
Eric O C 1997-03-15.39842 1.000E-05 12:14:50.240 1.500E-01 0.600 F 0.041 -0.498 -02° 30' 17.80" 1.000E-01 0.600 F -0.994 0.232 15.9 V 0.70 0.71 a 691 0.92 Yes Yes
Eric O C 1997-03-15.42225 1.000E-05 12:14:47.930 1.500E-01 0.600 F 0.041 -0.453 -02° 30' 15.70" 1.000E-01 0.600 F -0.994 0.240 16.1 V 0.70 0.91 a 691 0.86 Yes Yes
Eric O C 1997-03-15.44348 1.000E-05 12:14:45.870 1.500E-01 0.600 F 0.041 -0.500 -02° 30' 13.90" 1.000E-01 0.600 F -0.994 0.170 16.1 V 0.70 0.91 a 691 0.88 Yes Yes
2013EM20 O C 1997-04-07.36378 1.000E-05 14:23:03.680 1.500E-01 0.600 F 0.565 -0.950 +03° 07' 14.90" 1.000E-01 0.600 F 0.423 -0.164 21.6 V 0.70 0.77 a 691 1.63 Yes Yes
2013EM20 O C 1997-04-07.38536 1.000E-05 14:23:01.100 1.500E-01 0.600 F 0.565 -0.680 +03° 07' 21.80" 1.000E-01 0.600 F 0.423 -0.641 22.2 V 0.70 1.37 a 691 1.56 Yes Yes
2013EM20 O C 1997-04-07.40728 1.000E-05 14:22:58.440 1.500E-01 0.600 F 0.565 -1.011 +03° 07' 29.90" 1.000E-01 0.600 F 0.423 -0.017 21.4 V 0.70 0.57 a 691 1.71 Yes Yes
1997GK3 O c 1997-04-07.44749 1.000E-05 14:49:41.090 1.500E-01 0.600 F 0.594 -0.089 +03° 38' 01.60" 1.000E-01 0.600 F 0.685 0.150 19.4 V 0.70 0.43 i 691 0.30 Yes Yes
1997GK3 O c 1997-04-07.47305 1.000E-05 14:49:30.560 1.500E-01 0.600 F 0.594 -0.209 +03° 33' 02.60" 1.000E-01 0.600 F 0.685 -1.091 18.8 V 0.70 -0.17 i 691 1.93 Yes Yes
1997GK3 O c 1997-04-07.49829 1.000E-05 14:49:20.240 1.500E-01 0.600 F 0.594 -0.229 +03° 28' 10.00" 1.000E-01 0.600 F 0.685 0.377 19.3 V 0.70 0.34 i 691 0.77 Yes Yes
2007TY18 O C 1997-04-08.23552 1.000E-05 12:03:21.630 1.500E-01 0.600 F -0.201 -0.158 -00° 59' 30.60" 1.000E-01 0.600 F -0.079 -1.445 21.9 V 0.70 0.97 a 691 2.46 Yes Yes
2007TY18 O C 1997-04-08.25656 1.000E-05 12:03:19.970 1.500E-01 0.600 F -0.201 -0.191 -00° 59' 24.70" 1.000E-01 0.600 F -0.079 -0.606 22.3 V 0.70 1.37 a 691 1.07 Yes Yes
2007TY18 O C 1997-04-08.27759 1.000E-05 12:03:18.310 1.500E-01 0.600 F -0.201 -0.234 -00° 59' 19.80" 1.000E-01 0.600 F -0.079 -0.765 22.8 V 0.70 1.87 a 691 1.34 Yes Yes
1997GH28 O C 1997-04-09.19083 1.000E-05 10:26:47.680 1.500E-01 0.600 F -0.367 0.863 +08° 00' 16.10" 1.000E-01 0.600 F -0.034 -0.246 19.9 V 0.70 0.64 a 691 1.54 Yes Yes
1997GH28 O C 1997-04-09.21479 1.000E-05 10:26:48.130 1.500E-01 0.600 F -0.367 0.862 +08° 00' 02.70" 1.000E-01 0.600 F -0.034 -0.166 20.1 V 0.70 0.84 a 691 1.51 Yes Yes
1997GH28 O C 1997-04-09.23584 1.000E-05 10:26:48.530 1.500E-01 0.600 F -0.367 0.896 +07° 59' 50.70" 1.000E-01 0.600 F -0.034 -0.297 20.2 V 0.70 0.94 a 691 1.62 Yes Yes
2007TY18 O C 1997-04-09.26249 1.000E-05 12:02:03.580 1.500E-01 0.600 F -0.201 0.182 -00° 55' 24.50" 1.000E-01 0.600 F -0.079 -0.119 22.5 V 0.70 1.56 a 691 0.39 Yes Yes
2007TY18 O C 1997-04-09.27221 1.000E-05 12:02:02.810 1.500E-01 0.600 F -0.201 0.012 -00° 55' 21.80" 1.000E-01 0.600 F -0.079 0.288 23.3 V 0.70 2.35 a 691 0.49 Yes No
2007TY18 O C 1997-04-09.28567 1.000E-05 12:02:01.690 1.500E-01 0.600 F -0.201 -1.032 -00° 55' 18.20" 1.000E-01 0.600 F -0.079 0.712 22.4 V 0.70 1.45 a 691 2.26 Yes Yes
1997GK3 O c 1997-04-12.28498 1.000E-05 14:19:38.540 1.500E-01 0.600 F -0.223 2.053 -11° 13' 28.60" 1.000E-01 0.600 F 0.023 4.294 19.9 V 0.70 1.17 i 691 7.50 No Yes
1997GK3 O c 1997-04-12.29649 1.000E-05 14:19:34.150 1.500E-01 0.600 F -0.223 3.254 -11° 15' 25.90" 1.000E-01 0.600 F 0.023 3.932 19.3 V 0.70 0.57 i 691 8.05 No Yes
1996RG3 O c 1997-04-12.31863 1.000E-05 14:02:12.330 1.500E-01 0.600 F -0.061 0.273 -04° 33' 21.20" 1.000E-01 0.600 F -0.364 0.327 18.8 V 0.70 0.23 i 691 0.71 Yes Yes
1996RG3 O c 1997-04-12.32401 1.000E-05 14:02:11.620 1.500E-01 0.600 F -0.061 0.123 -04° 33' 17.50" 1.000E-01 0.600 F -0.364 0.378 18.8 V 0.70 0.23 i 691 0.66 Yes Yes
1996RG3 O c 1997-04-12.33835 1.000E-05 14:02:09.730 1.500E-01 0.600 F -0.061 -0.242 -04° 33' 07.70" 1.000E-01 0.600 F -0.364 0.449 18.7 V 0.70 0.13 i 691 0.86 Yes Yes
1997GH28 O c 1997-04-13.17046 1.000E-05 10:28:35.280 1.500E-01 0.600 F 0.183 0.492 +07° 23' 00.90" 1.000E-01 0.600 F -0.417 -0.480 19.3 V 0.70 -0.14 i 691 1.18 Yes Yes
1997GH28 O c 1997-04-13.19201 1.000E-05 10:28:35.840 1.500E-01 0.600 F 0.183 0.158 +07° 22' 49.20" 1.000E-01 0.600 F -0.417 -0.100 19.2 V 0.70 -0.24 i 691 0.32 Yes Yes
1997GH28 O c 1997-04-13.21381 1.000E-05 10:28:36.420 1.500E-01 0.600 F 0.183 0.002 +07° 22' 36.80" 1.000E-01 0.600 F -0.417 -0.256 19.0 V 0.70 -0.44 i 691 0.43 Yes Yes
1997GH28 O c 1997-04-14.27248 1.000E-05 10:29:10.120 1.500E-01 0.600 F 0.183 -0.294 +07° 12' 43.30" 1.000E-01 0.600 F -0.417 0.047 19.9 V 0.70 0.41 i 691 0.50 Yes Yes
1997GH28 O c 1997-04-14.28646 1.000E-05 10:29:10.550 1.500E-01 0.600 F 0.183 -0.102 +07° 12' 35.30" 1.000E-01 0.600 F -0.417 -0.057 19.7 V 0.70 0.21 i 691 0.19 Yes Yes
1997GH28 O c 1997-04-14.29834 1.000E-05 10:29:10.910 1.500E-01 0.600 F 0.183 -0.058 +07° 12' 28.50" 1.000E-01 0.600 F -0.417 -0.143 19.6 V 0.70 0.11 i 691 0.26 Yes Yes
1997GD32 O c 1997-04-14.39134 1.000E-05 14:38:58.400 1.500E-01 0.600 F -0.497 0.727 +03° 52' 14.20" 1.000E-01 0.600 F 0.648 -0.782 18.7 V 0.70 -0.13 i 691 1.82 Yes Yes
1997GD32 O c 1997-04-14.41431 1.000E-05 14:39:01.350 1.500E-01 0.600 F -0.497 0.795 +03° 52' 32.40" 1.000E-01 0.600 F 0.648 -0.698 18.8 V 0.70 -0.03 i 691 1.80 Yes Yes
1997GD32 O c 1997-04-14.43565 1.000E-05 14:39:04.100 1.500E-01 0.600 F -0.497 0.637 +03° 52' 49.30" 1.000E-01 0.600 F 0.648 -0.601 18.9 V 0.70 0.07 i 691 1.49 Yes Yes
1997GD32 O c 1997-04-15.25483 1.000E-05 14:41:11.650 1.500E-01 0.600 F 0.200 -0.432 +04° 03' 59.70" 1.000E-01 0.600 F 0.133 -0.125 18.7 V 0.70 -0.02 i 691 0.78 Yes Yes
1997GD32 O c 1997-04-15.26299 1.000E-05 14:41:12.810 1.500E-01 0.600 F 0.200 -0.476 +04° 04' 06.40" 1.000E-01 0.600 F 0.133 -0.399 18.6 V 0.70 -0.12 i 691 1.08 Yes Yes
1997GD32 O c 1997-04-15.27225 1.000E-05 14:41:14.140 1.500E-01 0.600 F 0.200 -0.259 +04° 04' 14.60" 1.000E-01 0.600 F 0.133 -0.110 18.6 V 0.70 -0.12 i 691 0.49 Yes Yes
1997GH28 O c 1997-04-16.25878 1.000E-05 10:30:19.430 1.500E-01 0.600 F 0.168 -0.136 +06° 54' 09.70" 1.000E-01 0.600 F -0.316 -0.357 21.0 V 0.70 1.43 i 691 0.64 Yes Yes
1997GH28 O c 1997-04-16.26386 1.000E-05 10:30:19.570 1.500E-01 0.600 F 0.168 -0.573 +06° 54' 06.50" 1.000E-01 0.600 F -0.316 -0.693 20.8 V 0.70 1.23 i 691 1.50 Yes Yes
1997GH28 O c 1997-04-16.27264 1.000E-05 10:30:19.860 1.500E-01 0.600 F 0.168 -0.627 +06° 54' 01.80" 1.000E-01 0.600 F -0.316 -0.441 19.9 V 0.70 0.33 i 691 1.28 Yes Yes
1997GD32 O c 1997-04-16.34838 1.000E-05 14:44:12.470 1.500E-01 0.735 F 0.200 -0.005 +04° 20' 00.60" 1.000E-01 0.735 F 0.133 -0.175 18.3 V 0.70 -0.28 i 691 0.24 Yes Yes
1997GD32 O c 1997-04-16.35395 1.000E-05 14:44:13.310 1.500E-01 0.735 F 0.200 -0.453 +04° 20' 05.50" 1.000E-01 0.735 F 0.133 -0.380 18.3 V 0.70 -0.28 i 691 0.82 Yes Yes
1997GD32 O c 1997-04-16.35986 1.000E-05 14:44:14.260 1.500E-01 0.735 F 0.200 -0.057 +04° 20' 10.90" 1.000E-01 0.735 F 0.133 -0.393 18.4 V 0.70 -0.18 i 691 0.55 Yes Yes
1997GD32 O c 1997-04-16.38268 1.000E-05 14:44:17.830 1.500E-01 0.735 F 0.200 -0.115 +04° 20' 32.20" 1.000E-01 0.735 F 0.133 0.028 18.7 V 0.70 0.12 i 691 0.16 Yes Yes
1997GD32 O c 1997-04-16.40467 1.000E-05 14:44:21.300 1.500E-01 0.735 F 0.200 -0.001 +04° 20' 52.10" 1.000E-01 0.735 F 0.133 -0.156 18.5 V 0.70 -0.07 i 691 0.22 Yes Yes
1997GD32 O c 1997-04-16.42643 1.000E-05 14:44:24.750 1.500E-01 0.735 F 0.200 -0.036 +04° 21' 12.00" 1.000E-01 0.735 F 0.133 -0.098 18.6 V 0.70 0.03 i 691 0.14 Yes Yes
1997GH28 O c 1997-05-02.19407 1.000E-05 10:43:16.700 1.500E-01 0.600 F 0.118 -0.055 +04° 24' 54.30" 1.000E-01 0.600 F -0.317 -0.319 20.5 V 0.70 0.29 i 691 0.54 Yes Yes
Anza O C 1997-05-06.22424 1.000E-05 14:10:08.450 1.500E-01 0.600 F 0.149 0.248 -12° 00' 34.40" 1.000E-01 0.600 F 0.041 0.299 21.8 V 0.70 1.36 a 691 0.65 Yes Yes
Anza O C 1997-05-06.27853 1.000E-05 14:10:04.820 1.500E-01 0.600 F 0.149 0.330 -12° 00' 12.90" 1.000E-01 0.600 F 0.041 0.426 22.0 V 0.70 1.56 a 691 0.90 Yes Yes
Anza O C 1997-05-06.30144 1.000E-05 14:10:03.180 1.500E-01 0.600 F 0.149 -1.218 -12° 00' 03.70" 1.000E-01 0.600 F 0.041 0.579 21.6 V 0.70 1.16 a 691 2.25 Yes Yes
1997GD32 O c 1997-05-06.46046 1.000E-05 22:44:47.370 1.500E-01 0.600 F 0.193 0.784 +11° 26' 51.30" 1.000E-01 0.600 F 0.260 -0.230 19.1 V 0.70 -0.06 i 691 1.59 Yes Yes
1997GD32 O c 1997-05-06.46538 1.000E-05 22:44:57.660 1.500E-01 0.600 F 0.193 0.151 +11° 26' 20.30" 1.000E-01 0.600 F 0.260 0.250 19.1 V 0.70 -0.06 i 691 0.52 Yes Yes
1997GD32 O c 1997-05-06.47134 1.000E-05 22:45:10.110 1.500E-01 0.600 F 0.193 -0.383 +11° 25' 41.30" 1.000E-01 0.600 F 0.260 -0.617 19.3 V 0.70 0.13 i 691 1.30 Yes Yes
Anza O c 1997-05-08.21771 1.000E-05 14:07:58.930 1.500E-01 0.600 F 0.292 -0.342 -11° 47' 30.90" 1.000E-01 0.600 F -0.124 -0.210 20.9 V 0.70 0.42 i 691 0.67 Yes Yes
Anza O c 1997-05-08.23913 1.000E-05 14:07:57.500 1.500E-01 0.600 F 0.292 -0.526 -11° 47' 22.20" 1.000E-01 0.600 F -0.124 0.123 21.3 V 0.70 0.82 i 691 0.91 Yes Yes
Anza O c 1997-05-08.26047 1.000E-05 14:07:56.110 1.500E-01 0.600 F 0.292 -0.190 -11° 47' 13.50" 1.000E-01 0.600 F -0.124 0.475 21.7 V 0.70 1.22 i 691 0.86 Yes Yes
Selqet O c 1997-07-01.29855 1.000E-05 18:17:51.670 1.500E-01 0.600 F -0.175 -0.168 -02° 48' 35.90" 1.000E-01 0.600 F 0.550 -0.073 17.6 R 0.70 0.57 i 691 0.31 Yes Yes
Selqet O c 1997-07-01.30313 1.000E-05 18:17:50.400 1.500E-01 0.600 F -0.175 -0.682 -02° 48' 28.00" 1.000E-01 0.600 F 0.550 0.552 i 691 1.47 Yes No
2001OZ13 O C 1997-07-03.21733 1.000E-05 15:40:26.200 1.500E-01 0.600 F -0.417 0.308 -13° 01' 51.00" 1.000E-01 0.600 F 0.398 0.075 20.0 V 0.70 0.31 i 691 0.53 Yes Yes
2001OZ13 O C 1997-07-03.26253 1.000E-05 15:40:25.550 1.500E-01 0.600 F -0.417 0.326 -13° 02' 23.50" 1.000E-01 0.600 F 0.398 0.219 19.9 V 0.70 0.21 i 691 0.66 Yes Yes
1993VW O C 1997-09-30.15379 1.000E-05 22:28:47.190 1.500E-01 0.600 F 0.243 -0.108 +03° 42' 56.70" 1.000E-01 0.600 F -0.329 0.107 20.9 V 0.70 0.56 a 691 0.25 Yes Yes
1993VW O C 1997-09-30.17551 1.000E-05 22:28:45.840 1.500E-01 0.600 F 0.243 -0.184 +03° 42' 42.90" 1.000E-01 0.600 F -0.329 0.092 20.5 V 0.70 0.16 a 691 0.34 Yes Yes
1993VW O C 1997-09-30.19887 1.000E-05 22:28:44.410 1.500E-01 0.600 F 0.243 0.080 +03° 42' 28.20" 1.000E-01 0.600 F -0.329 0.223 20.5 V 0.70 0.16 a 691 0.39 Yes Yes
1997TZ16 O c 1997-10-09.18329 1.000E-05 23:11:09.220 1.500E-01 0.671 F -0.586 0.416 -04° 53' 29.80" 1.000E-01 0.671 F -0.030 0.234 18.7 V 0.70 -0.64 i 691 0.79 Yes Yes
1997TZ16 O c 1997-10-09.20543 1.000E-05 23:10:54.260 1.500E-01 0.671 F -0.586 1.284 -04° 53' 04.20" 1.000E-01 0.671 F -0.030 0.260 19.3 V 0.70 -0.04 i 691 2.17 Yes Yes
1997TZ16 O c 1997-10-09.22738 1.000E-05 23:10:39.160 1.500E-01 0.671 F -0.586 -0.280 -04° 52' 38.20" 1.000E-01 0.671 F -0.030 0.508 19.0 V 0.70 -0.33 i 691 0.94 Yes Yes
1997TZ16 O c 1997-10-09.30881 1.000E-05 23:09:43.010 1.500E-01 0.671 F -0.586 -0.070 -04° 51' 00.00" 1.000E-01 0.671 F -0.030 -0.319 19.0 V 0.70 -0.32 i 691 0.52 Yes Yes
1997TZ16 O c 1997-10-09.33904 1.000E-05 23:09:22.050 1.500E-01 0.671 F -0.663 -0.854 -04° 50' 22.30" 1.000E-01 0.671 F 0.067 -0.837 19.0 V 0.70 -0.31 i 691 1.96 Yes Yes
Tomaiyowit O c 1997-10-09.45123 1.000E-05 08:26:28.560 1.500E-01 0.600 F 0.569 2.424 +18° 06' 29.40" 1.000E-01 0.600 F -0.019 -1.031 20.7 V 0.70 0.62 i 691 4.39 No Yes
Tomaiyowit O c 1997-10-09.45690 1.000E-05 08:26:30.100 1.500E-01 0.600 F 0.569 -0.757 +18° 06' 19.30" 1.000E-01 0.600 F -0.019 -0.357 20.7 V 0.70 0.62 i 691 1.39 Yes Yes
Tomaiyowit O c 1997-10-09.46849 1.000E-05 08:26:33.860 1.500E-01 0.600 F 0.569 1.500 +18° 05' 57.10" 1.000E-01 0.600 F -0.019 -0.523 20.7 V 0.70 0.62 i 691 2.65 Yes Yes
1997TZ16 O c 1997-10-10.17486 1.000E-05 22:59:25.540 1.500E-01 0.600 F -0.281 0.744 -04° 30' 46.80" 1.000E-01 0.600 F -0.157 -0.220 18.6 V 0.70 -0.53 i 691 1.46 Yes Yes
1997TZ16 O c 1997-10-10.17911 1.000E-05 22:59:21.760 1.500E-01 0.600 F -0.154 -0.396 -04° 30' 39.30" 1.000E-01 0.600 F -0.072 0.401 18.7 V 0.70 -0.43 i 691 1.02 Yes Yes
1997TZ16 O c 1997-10-10.18348 1.000E-05 22:59:17.980 1.500E-01 0.600 F -0.154 0.255 -04° 30' 32.30" 1.000E-01 0.600 F -0.072 0.395 18.7 V 0.70 -0.43 i 691 0.83 Yes Yes
1997TC25 O c 1997-10-10.40137 1.000E-05 02:19:41.200 1.500E-01 0.600 F 0.048 0.357 +13° 58' 15.20" 1.000E-01 0.600 F 0.328 -0.281 20.3 V 0.70 0.01 i 691 0.81 Yes Yes
1997TC25 O c 1997-10-10.43006 1.000E-05 02:19:46.200 1.500E-01 0.600 F 0.048 0.656 +13° 58' 51.70" 1.000E-01 0.600 F 0.328 -0.281 20.0 V 0.70 -0.30 i 691 1.33 Yes Yes
1997TC25 O c 1997-10-10.45408 1.000E-05 02:19:50.370 1.500E-01 0.600 F 0.048 -0.191 +13° 59' 21.20" 1.000E-01 0.600 F 0.328 -0.641 20.2 V 0.70 -0.10 i 691 1.23 Yes Yes
Tomaiyowit O c 1997-10-10.50061 1.000E-05 08:31:57.730 1.500E-01 0.600 F 0.501 -0.924 +17° 32' 31.10" 1.000E-01 0.600 F 0.025 -0.101 20.8 V 0.70 0.73 i 691 1.55 Yes Yes
Tomaiyowit O c 1997-10-10.50496 1.000E-05 08:31:59.090 1.500E-01 0.600 F 0.501 -0.837 +17° 32' 22.10" 1.000E-01 0.600 F 0.025 -0.578 20.7 V 0.70 0.63 i 691 1.69 Yes Yes
Tomaiyowit O c 1997-10-10.51522 1.000E-05 08:32:02.240 1.500E-01 0.600 F 0.501 -1.441 +17° 32' 02.50" 1.000E-01 0.600 F 0.025 -0.065 20.9 V 0.70 0.83 i 691 2.40 Yes Yes
1997TC25 O c 1997-10-11.29993 1.000E-05 02:22:44.140 1.500E-01 0.600 F 0.220 -0.139 +14° 16' 41.00" 1.000E-01 0.600 F -0.425 0.166 20.1 V 0.70 -0.35 i 691 0.38 Yes Yes
2016UY25 O c 1997-10-11.34710 1.000E-05 02:11:25.260 1.500E-01 0.600 F -0.233 0.509 +14° 41' 50.30" 1.000E-01 0.600 F -0.221 0.064 21.1 V 0.70 0.27 i 691 0.93 Yes Yes
1997TC25 O c 1997-10-11.35503 1.000E-05 02:22:52.000 1.500E-01 0.600 F 0.220 -0.340 +14° 17' 44.90" 1.000E-01 0.600 F -0.425 0.470 20.5 V 0.70 0.04 i 691 1.01 Yes Yes
2016UY25 O c 1997-10-11.36873 1.000E-05 02:11:22.980 1.500E-01 0.600 F -0.233 0.311 +14° 42' 40.50" 1.000E-01 0.600 F -0.221 0.318 21.1 V 0.70 0.27 i 691 0.81 Yes Yes
1997TC25 O c 1997-10-11.37672 1.000E-05 02:22:55.070 1.500E-01 0.600 F 0.220 -0.283 +14° 18' 09.00" 1.000E-01 0.600 F -0.425 0.466 20.5 V 0.70 0.04 i 691 0.95 Yes Yes
2016UY25 O c 1997-10-11.39066 1.000E-05 02:11:20.730 1.500E-01 0.600 F -0.233 0.987 +14° 43' 31.20" 1.000E-01 0.600 F -0.221 0.449 21.0 V 0.70 0.17 i 691 1.97 Yes Yes
1997TC25 O c 1997-10-11.39871 1.000E-05 02:22:58.200 1.500E-01 0.600 F 0.220 -0.062 +14° 18' 32.40" 1.000E-01 0.600 F -0.425 -0.041 20.2 V 0.70 -0.27 i 691 0.13 Yes Yes
1997TC25 O c 1997-10-12.33175 1.000E-05 02:25:37.620 1.500E-01 0.600 F 0.220 0.933 +14° 34' 35.50" 1.000E-01 0.600 F -0.425 -0.159 20.8 V 0.70 0.18 i 691 1.77 Yes Yes
1997TC25 O c 1997-10-12.33964 1.000E-05 02:25:38.490 1.500E-01 0.600 F 0.220 0.107 +14° 34' 42.90" 1.000E-01 0.600 F -0.425 -0.389 20.5 V 0.70 -0.12 i 691 0.70 Yes Yes
1997TC25 O c 1997-10-12.34770 1.000E-05 02:25:39.390 1.500E-01 0.600 F 0.220 -0.536 +14° 34' 50.40" 1.000E-01 0.600 F -0.425 -0.617 20.6 V 0.70 -0.02 i 691 1.49 Yes Yes
2016UY25 O C 1997-10-12.35733 1.000E-05 02:09:45.190 1.500E-01 0.600 F -0.055 -0.413 +15° 21' 06.90" 1.000E-01 0.600 F 0.187 -0.526 i 691 1.22 Yes No
2016UY25 O C 1997-10-12.36392 1.000E-05 02:09:44.510 1.500E-01 0.600 F -0.055 0.203 +15° 21' 22.90" 1.000E-01 0.600 F 0.187 -0.018 i 691 0.37 Yes No
2016UY25 O C 1997-10-12.37656 1.000E-05 02:09:43.030 1.500E-01 0.600 F -0.055 -1.161 +15° 21' 51.80" 1.000E-01 0.600 F 0.187 -0.816 i 691 2.59 Yes No
1997TC25 O c 1997-10-23.26213 1.000E-05 02:39:30.950 1.500E-01 0.600 F 0.184 0.321 +15° 59' 21.30" 1.000E-01 0.600 F 0.482 0.383 21.0 V 0.70 -0.79 i 691 0.98 Yes Yes
1997TC25 O c 1997-10-23.26966 1.000E-05 02:39:30.980 1.500E-01 0.600 F 0.184 -0.419 +15° 59' 23.60" 1.000E-01 0.600 F 0.482 0.982 20.9 V 0.70 -0.89 i 691 1.87 Yes Yes
1997TC25 O c 1997-10-23.28283 1.000E-05 02:39:31.120 1.500E-01 0.600 F 0.184 -0.347 +15° 59' 25.40" 1.000E-01 0.600 F 0.482 -0.122 21.3 V 0.70 -0.49 i 691 0.75 Yes Yes
1997US2 O c 1997-10-23.42903 1.000E-05 03:20:11.650 1.500E-01 0.600 F 0.220 0.694 +14° 24' 38.70" 1.000E-01 0.600 F 0.204 -0.204 20.3 V 0.70 -0.07 i 691 1.21 Yes Yes
1997US2 O c 1997-10-23.45217 1.000E-05 03:20:09.370 1.500E-01 0.600 F 0.220 -2.258 +14° 24' 30.20" 1.000E-01 0.600 F 0.204 -0.163 19.5 V 0.70 -0.87 i 691 3.75 No Yes
1997US2 O c 1997-10-23.47398 1.000E-05 03:20:07.600 1.500E-01 0.600 F 0.220 0.376 +14° 24' 21.80" 1.000E-01 0.600 F 0.204 -0.454 20.6 V 0.70 0.23 i 691 0.99 Yes Yes
1997US2 O c 1997-10-24.28330 1.000E-05 03:18:57.670 1.500E-01 0.600 F 0.220 -0.052 +14° 19' 24.60" 1.000E-01 0.600 F 0.204 0.137 20.6 V 0.70 0.30 i 691 0.25 Yes Yes
1997US2 O c 1997-10-24.28925 1.000E-05 03:18:57.100 1.500E-01 0.600 F 0.220 -0.162 +14° 19' 22.10" 1.000E-01 0.600 F 0.204 -0.172 20.6 V 0.70 0.30 i 691 0.40 Yes Yes
1997US2 O c 1997-10-24.29658 1.000E-05 03:18:56.380 1.500E-01 0.600 F 0.220 -0.542 +14° 19' 19.50" 1.000E-01 0.600 F 0.204 -0.067 20.3 V 0.70 0.00 i 691 0.92 Yes Yes
1997US2 O c 1997-10-25.31138 1.000E-05 03:17:22.380 1.500E-01 0.735 F 0.148 0.188 +14° 12' 46.50" 1.000E-01 0.735 F -0.161 -0.220 20.5 V 0.70 0.29 i 691 0.39 Yes Yes
1997US2 O c 1997-10-25.31697 1.000E-05 03:17:21.790 1.500E-01 0.735 F 0.148 -0.205 +14° 12' 44.60" 1.000E-01 0.735 F -0.161 0.075 20.9 V 0.70 0.69 i 691 0.30 Yes Yes
1997US2 O c 1997-10-25.32349 1.000E-05 03:17:21.210 1.500E-01 0.735 F 0.148 0.917 +14° 12' 41.20" 1.000E-01 0.735 F -0.161 -0.761 21.4 V 0.70 1.19 i 691 1.63 Yes Yes
1997US2 O c 1997-10-25.48143 1.000E-05 03:17:05.210 1.500E-01 0.735 F 0.148 0.024 +14° 11' 38.30" 1.000E-01 0.735 F -0.161 0.271 20.5 V 0.70 0.30 i 691 0.37 Yes Yes
1997US2 O c 1997-10-25.48707 1.000E-05 03:17:04.640 1.500E-01 0.735 F 0.148 -0.055 +14° 11' 36.00" 1.000E-01 0.735 F -0.161 0.312 20.6 V 0.70 0.40 i 691 0.43 Yes Yes
1997US2 O c 1997-10-25.49264 1.000E-05 03:17:04.050 1.500E-01 0.735 F 0.148 -0.536 +14° 11' 33.10" 1.000E-01 0.735 F -0.161 -0.272 20.1 V 0.70 -0.10 i 691 0.82 Yes Yes
1997US2 O c 1997-11-02.45802 1.000E-05 03:01:04.310 1.500E-01 0.600 F -0.199 -0.519 +13° 06' 13.90" 1.000E-01 0.600 F -0.050 -0.169 19.7 V 0.70 0.27 i 691 0.92 Yes Yes
1997US2 O c 1997-11-02.46595 1.000E-05 03:01:03.110 1.500E-01 0.600 F -0.199 -0.672 +13° 06' 09.20" 1.000E-01 0.600 F -0.050 -0.043 19.4 V 0.70 -0.03 i 691 1.13 Yes Yes
1997US2 O c 1997-11-02.47389 1.000E-05 03:01:01.920 1.500E-01 0.600 F -0.199 -0.682 +13° 06' 04.20" 1.000E-01 0.600 F -0.050 -0.205 19.7 V 0.70 0.27 i 691 1.20 Yes Yes
1997US2 O c 1997-11-03.46064 1.000E-05 02:58:34.640 1.500E-01 0.600 F -0.251 0.663 +12° 56' 06.30" 1.000E-01 0.600 F 0.064 -0.508 19.7 V 0.70 0.38 i 691 1.40 Yes Yes
1997US2 O c 1997-11-03.46505 1.000E-05 02:58:33.870 1.500E-01 0.600 F -0.251 -0.492 +12° 56' 03.50" 1.000E-01 0.600 F 0.064 -0.500 19.4 V 0.70 0.08 i 691 1.18 Yes Yes
1997US2 O c 1997-11-03.46902 1.000E-05 02:58:33.240 1.500E-01 0.600 F -0.457 -0.409 +12° 56' 01.20" 1.000E-01 0.600 F 0.181 -0.386 19.6 V 0.70 0.28 i 691 0.95 Yes Yes
1997US2 O c 1997-11-20.32138 1.000E-05 01:58:51.250 1.500E-01 0.600 F 0.673 -0.637 +08° 46' 33.30" 1.000E-01 0.600 F -0.030 -0.233 19.0 V 0.70 0.04 i 691 1.15 Yes Yes
1997US2 O c 1997-11-20.33294 1.000E-05 01:58:48.050 1.500E-01 0.600 F 0.673 -0.274 +08° 46' 19.60" 1.000E-01 0.600 F -0.030 -0.216 19.1 V 0.70 0.14 i 691 0.59 Yes Yes
1997US2 O c 1997-11-20.34066 1.000E-05 01:58:45.810 1.500E-01 0.600 F 0.673 -1.589 +08° 46' 10.20" 1.000E-01 0.600 F -0.030 -0.446 18.8 V 0.70 -0.16 i 691 2.79 Yes Yes
1997US2 O c 1997-11-24.31513 1.000E-05 01:39:58.280 1.500E-01 0.600 F -0.106 1.621 +07° 24' 08.00" 1.000E-01 0.600 F 0.543 -0.280 19.5 V 0.70 0.54 i 691 2.78 Yes Yes
1997US2 O c 1997-11-24.32122 1.000E-05 01:39:56.310 1.500E-01 0.600 F -0.106 -0.287 +07° 23' 59.90" 1.000E-01 0.600 F 0.543 -0.393 19.0 V 0.70 0.04 i 691 0.82 Yes Yes
1997US2 O c 1997-11-24.32669 1.000E-05 01:39:54.650 1.500E-01 0.600 F -0.106 -0.390 +07° 23' 52.80" 1.000E-01 0.600 F 0.543 -0.315 18.9 V 0.70 -0.06 i 691 0.85 Yes Yes
1997XE10 O c 1997-12-05.16432 1.000E-05 05:38:23.540 1.500E-01 0.600 F 0.124 4.295 +26° 09' 22.20" 1.000E-01 0.600 F -0.764 3.391 17.0 V 0.70 0.06 i 691 8.10 No Yes
1997XE10 O c 1997-12-05.46809 1.000E-05 05:50:19.780 1.500E-01 0.600 F 0.089 8.546 +28° 11' 50.40" 1.000E-01 0.600 F -0.240 1.764 17.0 V 0.70 0.01 i 691 12.81 No Yes
1997XE10 O c 1997-12-05.47293 1.000E-05 05:50:31.630 1.500E-01 0.600 F 0.031 6.243 +28° 13' 49.10" 1.000E-01 0.600 F -0.085 6.507 17.0 V 0.70 0.01 i 691 13.41 No Yes
1997XF11 O c 1997-12-06.47227 1.000E-05 07:58:29.820 1.500E-01 0.600 F 0.555 -0.487 +13° 31' 16.30" 1.000E-01 0.600 F -0.639 -0.011 19.1 V 0.70 0.13 i 691 0.81 Yes Yes
1997XF11 O c 1997-12-06.49324 1.000E-05 07:58:28.020 1.500E-01 0.600 F 0.555 -0.665 +13° 31' 16.00" 1.000E-01 0.600 F -0.639 0.000 19.4 V 0.70 0.43 i 691 1.11 Yes Yes
1997XF11 O c 1997-12-06.51496 1.000E-05 07:58:26.190 1.500E-01 0.600 F 0.555 -0.384 +13° 31' 15.60" 1.000E-01 0.600 F -0.639 -0.050 19.3 V 0.70 0.33 i 691 0.65 Yes Yes
1996AS1 O c 1997-12-27.21100 1.000E-05 06:22:35.170 1.500E-01 0.600 F -0.445 0.073 +32° 44' 09.90" 1.000E-01 0.600 F -0.403 -0.780 21.8 V 0.70 0.73 i 691 1.31 Yes Yes
1996AS1 O c 1997-12-27.21566 1.000E-05 06:22:34.700 1.500E-01 0.600 F -0.445 0.502 +32° 44' 09.20" 1.000E-01 0.600 F -0.403 -0.140 21.8 V 0.70 0.73 i 691 0.88 Yes Yes
1996AS1 O c 1997-12-27.22122 1.000E-05 06:22:34.150 1.500E-01 0.600 F -0.445 1.154 +32° 44' 06.50" 1.000E-01 0.600 F -0.403 -1.237 22.3 V 0.70 1.23 i 691 2.85 Yes Yes
1997US2 O c 1997-12-28.09417 1.000E-05 22:24:33.530 1.500E-01 0.600 F 0.852 0.955 -06° 45' 18.20" 1.000E-01 0.600 F 0.090 -0.246 21.7 V 0.70 1.34 i 691 1.83 Yes Yes
1997US2 O c 1997-12-28.09851 1.000E-05 22:24:31.720 1.500E-01 0.600 F 0.852 0.524 -06° 45' 25.00" 1.000E-01 0.600 F 0.090 -0.072 21.7 V 0.70 1.34 i 691 0.99 Yes Yes
1997US2 O c 1997-12-28.10293 1.000E-05 22:24:29.790 1.500E-01 0.600 F 0.852 -1.220 -06° 45' 31.80" 1.000E-01 0.600 F 0.090 0.229 22.2 V 0.70 1.84 i 691 2.31 Yes Yes
1996AS1 O c 1997-12-31.25832 1.000E-05 06:15:32.110 1.500E-01 0.600 F 0.071 -0.194 +32° 22' 27.70" 1.000E-01 0.600 F 0.100 -0.530 20.6 V 0.70 -0.53 i 691 0.94 Yes Yes
1996AS1 O c 1997-12-31.27035 1.000E-05 06:15:30.850 1.500E-01 0.600 F 0.071 -0.082 +32° 22' 24.00" 1.000E-01 0.600 F 0.100 -0.126 20.8 V 0.70 -0.33 i 691 0.25 Yes Yes
1996AS1 O c 1997-12-31.28274 1.000E-05 06:15:29.520 1.500E-01 0.600 F 0.071 -0.373 +32° 22' 19.60" 1.000E-01 0.600 F 0.100 -0.280 20.8 V 0.70 -0.33 i 691 0.78 Yes Yes
1991VE O c 1998-01-01.16699 1.000E-05 03:04:51.850 1.500E-01 0.600 F -0.042 -0.485 +23° 10' 47.10" 1.000E-01 0.600 F 0.364 -0.377 19.2 V 0.70 -0.11 i 691 1.03 Yes Yes
1991VE O c 1998-01-01.18958 1.000E-05 03:04:49.130 1.500E-01 0.600 F -0.042 -0.339 +23° 10' 37.80" 1.000E-01 0.600 F 0.364 -0.412 19.2 V 0.70 -0.11 i 691 0.89 Yes Yes
1991VE O c 1998-01-01.21234 1.000E-05 03:04:46.350 1.500E-01 0.600 F -0.042 -0.834 +23° 10' 28.50" 1.000E-01 0.600 F 0.364 -0.292 19.1 V 0.70 -0.21 i 691 1.47 Yes Yes
1997XF11 O c 1998-01-07.31893 1.000E-05 06:57:45.420 1.500E-01 0.600 F 0.171 0.173 +14° 39' 05.40" 1.000E-01 0.600 F -0.109 -0.253 18.4 V 0.70 -0.06 i 691 0.51 Yes Yes
1997XF11 O c 1998-01-07.32633 1.000E-05 06:57:44.490 1.500E-01 0.600 F 0.171 0.058 +14° 39' 07.00" 1.000E-01 0.600 F -0.109 -0.225 18.3 V 0.70 -0.16 i 691 0.39 Yes Yes
1997XF11 O c 1998-01-07.33701 1.000E-05 06:57:43.170 1.500E-01 0.600 F 0.171 0.206 +14° 39' 09.20" 1.000E-01 0.600 F -0.109 -0.287 18.3 V 0.70 -0.16 i 691 0.59 Yes Yes
1997XF11 O c 1998-01-22.29829 1.000E-05 06:31:27.240 1.500E-01 0.600 F 0.535 0.110 +15° 34' 09.20" 1.000E-01 0.600 F -0.286 -0.441 19.7 V 0.70 0.59 i 691 0.76 Yes Yes
1997XF11 O c 1998-01-22.30435 1.000E-05 06:31:26.690 1.500E-01 0.600 F 0.535 -0.057 +15° 34' 10.70" 1.000E-01 0.600 F -0.286 -0.255 19.4 V 0.70 0.29 i 691 0.44 Yes Yes
1997XF11 O c 1998-01-22.31401 1.000E-05 06:31:25.840 1.500E-01 0.600 F 0.535 0.053 +15° 34' 12.60" 1.000E-01 0.600 F -0.286 -0.445 19.0 V 0.70 -0.11 i 691 0.75 Yes Yes
1998BY7 O c 1998-01-22.33297 1.000E-05 09:12:02.760 1.500E-01 0.600 F -0.060 0.026 +16° 41' 16.30" 1.000E-01 0.600 F 0.001 -0.175 19.7 V 0.70 -0.08 i 691 0.30 Yes Yes
1998BY7 O c 1998-01-22.35521 1.000E-05 09:12:02.810 1.500E-01 0.600 F -0.060 -0.151 +16° 41' 31.80" 1.000E-01 0.600 F 0.001 -0.419 19.9 V 0.70 0.13 i 691 0.74 Yes Yes
1998BY7 O c 1998-01-22.37712 1.000E-05 09:12:02.870 1.500E-01 0.600 F -0.060 -0.156 +16° 41' 47.70" 1.000E-01 0.600 F 0.001 0.094 19.7 V 0.70 -0.07 i 691 0.29 Yes Yes
1998BY7 O c 1998-01-23.36856 1.000E-05 09:12:17.210 1.500E-01 0.600 F -0.150 -0.125 +16° 53' 58.30" 1.000E-01 0.600 F -0.057 -0.059 19.4 V 0.70 -0.24 i 691 0.22 Yes Yes
1998BY7 O c 1998-01-23.37454 1.000E-05 09:12:17.220 1.500E-01 0.600 F -0.150 -0.117 +16° 54' 02.80" 1.000E-01 0.600 F -0.057 -0.123 19.6 V 0.70 -0.04 i 691 0.28 Yes Yes
1998BY7 O c 1998-01-23.38046 1.000E-05 09:12:17.230 1.500E-01 0.600 F -0.150 -0.112 +16° 54' 07.30" 1.000E-01 0.600 F -0.057 -0.131 19.5 V 0.70 -0.14 i 691 0.28 Yes Yes
1998BY7 O c 1998-01-24.37394 1.000E-05 09:12:30.880 1.500E-01 0.600 F -0.150 -0.224 +17° 07' 25.50" 1.000E-01 0.600 F -0.057 -0.207 19.5 V 0.70 -0.01 i 691 0.50 Yes Yes
1998BY7 O c 1998-01-24.38014 1.000E-05 09:12:30.870 1.500E-01 0.600 F -0.150 -0.412 +17° 07' 31.00" 1.000E-01 0.600 F -0.057 0.151 19.3 V 0.70 -0.21 i 691 0.72 Yes Yes
1998BY7 O c 1998-01-24.38999 1.000E-05 09:12:30.890 1.500E-01 0.600 F -0.150 -0.211 +17° 07' 38.40" 1.000E-01 0.600 F -0.057 -0.598 19.2 V 0.70 -0.31 i 691 1.06 Yes Yes
1998BT13 O c 1998-01-24.40315 1.000E-05 09:16:42.390 1.500E-01 0.600 F 0.086 -0.960 +17° 12' 27.80" 1.000E-01 0.600 F -0.097 -0.870 18.4 V 0.70 -0.09 i 691 2.50 Yes Yes
1998BT13 O c 1998-01-24.41854 1.000E-05 09:17:24.700 1.500E-01 0.600 F 0.086 -0.365 +17° 10' 27.40" 1.000E-01 0.600 F -0.097 -0.619 18.4 V 0.70 -0.10 i 691 1.34 Yes Yes
1998BT13 O c 1998-01-24.49811 1.000E-05 09:21:03.030 1.500E-01 0.600 F 0.066 0.311 +16° 59' 45.70" 1.000E-01 0.600 F -0.123 -1.109 18.3 V 0.70 -0.25 i 691 2.13 Yes Yes
1998BT13 O c 1998-01-25.25596 1.000E-05 09:54:42.410 1.500E-01 0.671 F 0.507 0.303 +15° 20' 22.80" 1.000E-01 0.671 F -0.116 0.039 19.1 V 0.70 0.13 i 691 0.51 Yes Yes
1998BT13 O c 1998-01-25.26393 1.000E-05 09:55:00.440 1.500E-01 0.671 F 0.507 -0.208 +15° 19' 23.00" 1.000E-01 0.671 F -0.116 0.313 19.1 V 0.70 0.12 i 691 0.60 Yes Yes
1998BT13 O c 1998-01-25.27383 1.000E-05 09:55:22.910 1.500E-01 0.671 F 0.507 1.732 +15° 18' 07.60" 1.000E-01 0.671 F -0.116 -0.234 19.2 V 0.70 0.22 i 691 2.89 Yes Yes
1998BY7 O c 1998-01-25.31184 1.000E-05 09:12:43.990 1.500E-01 0.600 F -0.144 -0.114 +17° 21' 04.30" 1.000E-01 0.600 F -0.120 -0.170 19.4 V 0.70 0.02 i 691 0.34 Yes Yes
1998BY7 O c 1998-01-25.33380 1.000E-05 09:12:43.960 1.500E-01 0.600 F -0.144 -0.379 +17° 21' 24.80" 1.000E-01 0.600 F -0.120 0.144 19.2 V 0.70 -0.18 i 691 0.67 Yes Yes
1998BY7 O c 1998-01-25.35639 1.000E-05 09:12:44.020 1.500E-01 0.600 F -0.144 0.716 +17° 21' 45.40" 1.000E-01 0.600 F -0.120 0.123 19.3 V 0.70 -0.08 i 691 1.23 Yes Yes
1998BT13 O c 1998-01-25.43875 1.000E-05 10:01:22.490 1.500E-01 0.671 F 0.409 -0.367 +14° 56' 38.90" 1.000E-01 0.671 F 0.342 0.386 19.2 V 0.70 0.14 i 691 0.88 Yes Yes
1998BT13 O c 1998-01-25.51878 1.000E-05 10:04:13.290 1.500E-01 0.671 F -0.003 0.904 +14° 45' 46.70" 1.000E-01 0.671 F 0.243 1.063 19.3 V 0.70 0.20 i 691 2.48 Yes Yes
2004XN35 O C 1998-01-26.22148 1.000E-05 08:59:34.740 1.500E-01 0.600 F 0.008 -0.476 +16° 07' 34.70" 1.000E-01 0.600 F -0.025 -0.594 22.8 V 0.70 1.45 a 691 1.27 Yes Yes
2004XN35 O C 1998-01-26.24359 1.000E-05 08:59:32.310 1.500E-01 0.600 F 0.008 -1.551 +16° 07' 47.90" 1.000E-01 0.600 F -0.025 -0.916 21.9 V 0.70 0.55 a 691 3.01 Yes Yes
2004XN35 O C 1998-01-26.26591 1.000E-05 08:59:30.000 1.500E-01 0.600 F 0.008 -0.515 +16° 08' 02.00" 1.000E-01 0.600 F -0.025 -0.442 22.6 V 0.70 1.25 a 691 1.13 Yes Yes
1998BT13 O c 1998-01-26.28692 1.000E-05 10:30:36.150 1.500E-01 0.600 F 0.291 -0.611 +13° 09' 16.60" 1.000E-01 0.600 F -0.070 1.182 19.4 V 0.70 -0.08 i 691 2.43 Yes Yes
1998BT13 O c 1998-01-26.29170 1.000E-05 10:30:44.400 1.500E-01 0.600 F 0.291 0.139 +13° 08' 44.00" 1.000E-01 0.600 F -0.070 1.681 19.4 V 0.70 -0.08 i 691 2.94 Yes Yes
1998BT13 O c 1998-01-26.45684 1.000E-05 10:35:18.040 1.500E-01 0.600 F 0.088 7.558 +12° 49' 16.40" 1.000E-01 0.600 F -0.201 -0.960 19.5 V 0.70 -0.05 i 691 10.23 No Yes
1998BT13 O c 1998-01-27.41359 1.000E-05 10:59:55.710 1.500E-01 0.600 F 0.281 2.432 +11° 05' 28.90" 1.000E-01 0.600 F 0.003 0.534 19.9 V 0.70 -0.06 i 691 3.66 No Yes

[1-200] [201-400] [401-600] [601-800] [801-1000] [1001-1200] [1201-1400] [1401-1600] [1601-1800] [1801-2000] [2001-2200] [2201-2400] [2401-2600] [2601-2800] [2801-3000] [3001-3200] [3201-3400] [3401-3600] [3601-3800] [3801-4000] [4001-4200] [4201-4400] [4401-4600] [4601-4800] [4801-5000] [5001-5200] [5201-5400] [5401-5600] [5601-5800] [5801-6000] [6001-6200] [6201-6400] [6401-6600] [6601-6800] [6801-7000] [7001-7200] [7201-7400] [7401-7600] [7601-7800] [7801-8000] [8001-8200] [8201-8400] [8401-8600] [8601-8800] [8801-9000] [9001-9200] [9201-9400] [9401-9600] [9601-9800] [9801-10000] [10001-10200] [10201-10400] [10401-10600] [10601-10800] [10801-11000] [11001-11200] [11201-11400] [11401-11600] [11601-11800] [11801-12000] [12001-12200] [12201-12400] [12401-12600] [12601-12800] [12801-13000] [13001-13200] [13201-13400] [13401-13600] [13601-13800] [13801-14000] [14001-14200] [14201-14400] [14401-14600] [14601-14800] [14801-15000] [15001-15200] [15201-15400] [15401-15600] [15601-15800] [15801-16000] [16001-16200] [16201-16400] [16401-16600] [16601-16800] [16801-17000] [17001-17200] [17201-17400] [17401-17600] [17601-17800] [17801-18000] [18001-18200] [18201-18400] [18401-18600] [18601-18800] [18801-19000] [19001-19200] [19201-19400] [19401-19600] [19601-19800] [19801-20000] [20001-20200] [20201-20400] [20401-20600] [20601-20800] [20801-21000] [21001-21200] [21201-21400] [21401-21600] [21601-21800] [21801-22000] [22001-22200] [22201-22400] [22401-22600] [22601-22800] [22801-23000] [23001-23200] [23201-23400] [23401-23600] [23601-23800] [23801-24000] [24001-24200] [24201-24400] [24401-24600] [24601-24800] [24801-25000] [25001-25200] [25201-25400] [25401-25600] [25601-25800] [25801-26000] [26001-26200] [26201-26400] [26401-26600] [26601-26800] [26801-27000] [27001-27200] [27201-27400] [27401-27600] [27601-27800] [27801-28000] [28001-28200] [28201-28400] [28401-28600] [28601-28800] [28801-29000] [29001-29200] [29201-29400] [29401-29600] [29601-29800] [29801-30000] [30001-30200] [30201-30400] [30401-30600] [30601-30800] [30801-31000] [31001-31200] [31201-31400] [31401-31600] [31601-31800] [31801-32000] [32001-32200] [32201-32400] [32401-32600] [32601-32800] [32801-33000] [33001-33200] [33201-33400] [33401-33600] [33601-33800] [33801-34000] [34001-34200] [34201-34400] [34401-34600] [34601-34800] [34801-35000] [35001-35200] [35201-35400] [35401-35600] [35601-35800] [35801-36000] [36001-36200] [36201-36400] [36401-36600] [36601-36800] [36801-37000] [37001-37200] [37201-37400] [37401-37600] [37601-37800] [37801-38000] [38001-38200] [38201-38400] [38401-38600] [38601-38800] [38801-39000] [39001-39200] [39201-39400] [39401-39600] [39601-39800] [39801-40000] [40001-40200] [40201-40400] [40401-40600] [40601-40800] [40801-41000] [41001-41200] [41201-41400] [41401-41600] [41601-41800] [41801-42000] [42001-42200] [42201-42400] [42401-42600] [42601-42800] [42801-43000] [43001-43200] [43201-43400] [43401-43600] [43601-43800] [43801-44000] [44001-44200] [44201-44400] [44401-44600] [44601-44800] [44801-45000] [45001-45200] [45201-45400] [45401-45600] [45601-45800] [45801-46000] [46001-46200] [46201-46400] [46401-46600] [46601-46800] [46801-47000] [47001-47200] [47201-47400] [47401-47600] [47601-47800] [47801-48000] [48001-48200] [48201-48400] [48401-48600] [48601-48800] [48801-49000] [49001-49200] [49201-49400] [49401-49600] [49601-49800] [49801-50000] [50001-50200] [50201-50388]